Location: Zihuatanejo
(17.6330°N, 101.5500°W)
Time: 17:47:04
(UTC-06:00)

Daily predictions for brighter satellites

Satellite Brightness Start Highest point End
(mag) Time Altitude Azimuth Time Altitude Azimuth Time Altitude Azimuth
MSX 4.2 18:23:57 10° SE 18:29:21 43° ENE 18:34:44 10° N
GPS 2-18 Rocket1 3.5 18:25:41 10° WNW 18:29:35 54° N 18:33:32 10° E
CZ-4 R/B 1.8 18:26:24 10° S 18:30:34 74° WSW 18:34:45 10° NNW
GPS 2-14 Rocket1 2.9 18:27:41 10° W 18:31:42 68° N 18:35:50 10° ENE
Cosmos 1461 2.8 18:29:51 10° NNW 18:33:48 88° WSW 18:37:50 10° SSE
Nadezhda 3 Rocket 4.5 18:28:29 10° SSE 18:34:04 37° E 18:39:41 10° NNE
SL-27 R/B 3.8 18:32:00 10° NNE 18:34:44 20° ENE 18:37:27 10° ESE
deb Centaur AC-2 4.3 18:32:54 10° WNW 18:37:37 70° SSW 18:41:54 10° SE
SL-24 R/B - RUBIN 2 4.4 18:34:01 10° SSW 18:39:44 76° ESE 18:46:10 10° NNE
CZ-2C R/B 2.5 18:35:34 10° S 18:40:21 82° WSW 18:45:20 10° NNW
Cosmos 1238 Rocket 4.0 18:41:41 10° SSW 18:44:43 35° W 18:47:29 10° NNW
COSMO-SKYMED 1 2.7 18:40:57 10° N 18:45:17 82° WNW 18:49:37 10° SSW
Cosmos 1544 Rocket 3.5 18:42:15 10° N 18:46:42 71° E 18:51:08 10° S
Cosmos 158 Rocket 4.0 18:44:42 10° NNW 18:49:59 85° ENE 18:55:08 10° SSE
Cosmos 2297 3.7 18:46:23 10° S 18:52:00 68° ESE 18:57:35 10° NNE
ATLAS 3B CENTAUR R/B 4.3 18:30:25 10° W 18:53:09 56° NNW 19:00:10 14° ENE
Cosmos 1536 Rocket 4.3 18:49:03 10° SSW 18:53:23 57° W 18:57:46 10° N
COSMOS 2441 4.3 18:51:03 10° SSE 18:55:51 70° ENE 19:00:42 10° N
NOSS 2-1 (D) 3.2 18:53:05 10° SSW 18:57:07 75° ESE 19:00:46 11° NNE
NOSS 2-1 (C) 3.2 18:53:47 10° SSW 18:57:49 73° ESE 19:01:25 11° NNE
Cosmos 1975 3.2 18:55:18 10° NNE 18:59:07 41° E 19:02:54 10° SSE
SMAP 4.3 18:55:34 10° S 18:59:59 45° W 19:04:25 10° NNW
YAOGAN 1 3.8 18:56:07 10° S 19:00:15 45° W 19:04:23 10° NNW
Meteor 1-12 Rocket 4.3 18:56:04 10° N 19:01:50 64° E 19:07:42 10° SSE
Meteor 1-19 Rocket 4.4 18:58:25 10° S 19:03:55 53° E 19:09:30 10° NNE
Cosmos 2056 Rocket 4.5 19:02:03 10° SSE 19:06:37 28° E 19:09:11 19° ENE
Cosmos 2278 Rocket 3.9 19:03:41 10° SW 19:08:36 31° WNW 19:13:33 10° N
GPS 2-17 Rocket1 3.1 19:06:17 10° WSW 19:10:57 77° SSE 19:13:39 24° E
Cosmos 1025 Rocket 3.5 19:08:54 10° SSE 19:12:54 38° E 19:15:21 20° NE
Cosmos 1484 Rocket 2.9 19:11:53 10° S 19:15:42 73° W 19:19:27 10° NNW
NOSS 2-1 (E) 3.5 19:12:22 10° SSW 19:16:21 67° WNW 19:19:20 16° NNE
IDEFIX/ARIANE 42P 4.5 19:11:59 10° SSW 19:16:37 33° W 19:21:15 10° NW
Okean 1-7 Rocket 3.5 19:14:01 10° S 19:18:34 86° E 19:23:06 10° N
Meteor 1-13 Rocket 4.3 19:13:17 10° S 19:18:49 82° W 19:24:30 10° N
FALCON 9 R/B 4.4 18:54:45 10° W 19:20:13 39° NNW 19:26:28 16° NNE
Cosmos 1624 Rocket 4.3 19:15:55 10° S 19:20:48 44° E 19:23:18 26° NE
Cosmos 921 Rocket 3.0 19:17:08 10° SSW 19:21:17 76° WNW 19:25:22 11° N
COSMOS 2406 4.3 19:17:54 10° NNW 19:23:22 47° WSW 19:28:51 10° S
Cosmos 1371 Rocket 4.0 19:19:17 10° S 19:24:31 65° ESE 19:28:19 19° NNE
Meteor 2-21 Rocket 4.5 19:21:46 10° N 19:27:48 56° E 19:33:45 10° SSE
Meteor 1-23 Rocket 4.2 19:30:10 10° S 19:35:53 65° E 19:39:44 21° NNE
Cosmos 1892 Rocket 4.1 19:36:23 10° SSE 19:39:33 38° SE 19:39:33 38° SE
Cosmos 1535 Rocket 4.5 19:39:37 10° N 19:45:44 56° E 19:51:46 10° SSE
Okean 2 3.7 19:43:32 10° S 19:46:46 49° SSE 19:46:46 49° SSE
NOAA 12 4.1 19:44:46 10° S 19:50:04 85° WSW 19:55:22 10° NNW
Cosmos 1934 Rocket 4.2 19:50:54 46° E 19:50:54 46° E 19:56:43 10° SSE
METEOR-M 4.0 19:45:47 10° SSE 19:51:06 81° ENE 19:56:27 10° N
Haruka 3.8 19:48:58 10° SSW 19:51:39 30° SSE 19:51:39 30° SSE
Hubble Space Telescope 0.9 19:50:02 10° WNW 19:53:39 67° WNW 19:53:39 67° WNW
Meteor 2-4 Rocket 4.0 19:50:36 10° SSW 19:56:01 63° W 20:00:09 17° N
GPS 2-15 Rocket1 3.3 19:58:01 10° W 20:02:06 63° NW 20:02:06 63° NW
Helios 1B rocket 2.8 20:03:19 61° W 20:03:19 61° W 20:07:09 10° SSW
Cosmos 2239 Rocket 4.3 19:57:39 10° N 20:03:50 87° E 20:09:59 10° S
Palapa 6 Rocket 3.9 19:59:07 10° WNW 20:04:01 45° NNW 20:04:01 45° NNW
ATLAS 2AS CENTAUR R/B 2.9 20:03:00 10° NNW 20:10:43 76° WSW 20:17:44 10° SSE
Cosmos 1821 Rocket 3.9 20:06:07 10° N 20:12:12 82° W 20:18:18 10° S
GPS 2-14 Rocket1 4.4 20:08:56 10° WNW 20:11:10 29° WNW 20:11:10 29° WNW
SJ-6B 4.4 20:10:33 10° SSW 20:14:00 32° W 20:14:15 32° W
Cosmos 2369 Rocket 3.7 20:12:02 10° S 20:14:17 23° SSE 20:14:17 23° SSE
GEOS 3 Rocket 3.8 20:20:24 64° W 20:20:24 64° W 20:25:01 10° NW
Cosmos 1727 Rocket 4.5 20:34:21 10° SSW 20:40:19 57° W 20:40:19 57° W
Centaur AC-72 3.9 21:07:16 10° WSW 21:10:38 37° WSW 21:10:38 37° WSW
